QPF
0.00 0.00 0.00 0.00 0.00 0.00 0.01 0.03 0.03 0.01 0.00 0.01 0.01 0.01 0.01 0.01 0.00 0.00 0.01 0.01 0.01 0.01 0.01 0.01 0.01 0.01 0.02 0.04 0.04 0.03 0.03 0.02 0.03 0.03 0.04 0.07 0.10 0.12 0.10 0.07 0.06 0.05 0.05 0.08
0.00 0.00 0.00 0.00 0.00 0.00 0.01 0.02 0.03 0.03 0.01 0.01 0.02 0.01 0.00 0.01 0.01 0.00 0.01 0.01 0.01 0.01 0.01 0.01 0.01 0.01 0.02 0.03 0.03 0.03 0.03 0.03 0.02 0.02 0.02 0.03 0.06 0.11 0.11 0.06 0.06 0.05 0.05 0.07
0.00 0.00 0.00 0.00 0.01 0.01 0.00 0.01 0.01 0.01 0.02 0.01 0.01 0.01 0.01 0.00 0.01 0.01 0.00 0.00 0.01 0.01 0.01 0.02 0.02 0.02 0.01 0.02 0.02 0.03 0.03 0.03 0.03 0.03 0.02 0.04 0.06 0.08 0.12 0.10 0.06 0.05 0.05 0.06
0.00 0.00 0.00 0.00 0.00 0.01 0.00 0.01 0.01 0.01 0.02 0.02 0.01 0.02 0.02 0.01 0.00 0.01 0.01 0.00 0.00 0.01 0.03 0.05 0.04 0.02 0.02 0.01 0.02 0.04 0.04 0.03 0.03 0.03 0.03 0.03 0.03 0.06 0.07 0.07 0.05 0.04 0.03 0.03
0.01 0.01 0.00 0.00 0.00 0.00 0.00 0.01 0.02 0.01 0.01 0.01 0.01 0.02 0.03 0.02 0.01 0.00 0.00 0.00 0.01 0.03 0.05 0.05 0.05 0.02 0.02 0.01 0.02 0.04 0.03 0.03 0.04 0.04 0.04 0.04 0.04 0.04 0.05 0.06 0.06 0.05 0.04 0.03
0.01 0.02 0.01 0.00 0.00 0.00 0.00 0.00 0.02 0.02 0.01 0.03 0.02 0.02 0.04 0.02 0.01 0.01 0.01 0.01 0.02 0.02 0.03 0.03 0.02 0.03 0.01 0.02 0.02 0.02 0.02 0.02 0.03 0.03 0.03 0.04 0.03 0.03 0.05 0.06 0.08 0.09 0.07 0.04
0.01 0.01 0.00 0.00 0.01 0.01 0.01 0.01 0.03 0.04 0.03 0.03 0.03 0.03 0.03 0.02 0.01 0.03 0.03 0.02 0.01 0.01 0.01 0.02 0.02 0.04 0.02 0.02 0.03 0.03 0.02 0.02 0.02 0.02 0.03 0.05 0.04 0.04 0.05 0.08 0.09 0.08 0.05 0.03
0.01 0.01 0.00 0.00 0.01 0.01 0.01 0.01 0.03 0.05 0.04 0.03 0.03 0.04 0.04 0.06 0.04 0.05 0.06 0.08 0.03 0.02 0.02 0.01 0.01 0.02 0.03 0.02 0.04 0.04 0.02 0.02 0.02 0.02 0.04 0.07 0.07 0.06 0.06 0.07 0.06 0.06 0.05 0.04
0.01 0.01 0.00 0.00 0.00 0.00 0.01 0.01 0.02 0.03 0.02 0.03 0.03 0.04 0.04 0.05 0.05 0.03 0.03 0.06 0.06 0.04 0.03 0.03 0.04 0.04 0.04 0.03 0.03 0.03 0.03 0.03 0.03 0.03 0.04 0.06 0.06 0.07 0.06 0.06 0.06 0.06 0.06 0.05
0.01 0.01 0.01 0.00 0.00 0.00 0.00 0.01 0.02 0.03 0.03 0.05 0.06 0.09 0.09 0.05 0.04 0.02 0.01 0.01 0.03 0.05 0.04 0.04 0.05 0.07 0.07 0.04 0.04 0.05 0.05 0.04 0.05 0.05 0.05 0.05 0.05 0.05 0.06 0.06 0.05 0.05 0.06 0.06
0.01 0.02 0.01 0.00 0.01 0.01 0.01 0.01 0.03 0.03 0.02 0.04 0.07 0.12 0.10 0.05 0.03 0.03 0.02 0.01 0.02 0.04 0.05 0.05 0.06 0.07 0.06 0.05 0.05 0.05 0.06 0.07 0.07 0.05 0.05 0.05 0.06 0.06 0.06 0.06 0.05 0.05 0.06 0.06
0.01 0.02 0.01 0.02 0.01 0.01 0.02 0.03 0.03 0.04 0.05 0.06 0.08 0.09 0.05 0.04 0.04 0.03 0.04 0.04 0.03 0.02 0.02 0.02 0.03 0.05 0.05 0.05 0.06 0.07 0.08 0.09 0.10 0.09 0.08 0.07 0.07 0.07 0.06 0.05 0.06 0.06 0.06 0.06
0.01 0.02 0.02 0.03 0.04 0.03 0.04 0.03 0.03 0.04 0.06 0.07 0.09 0.07 0.04 0.04 0.06 0.04 0.04 0.03 0.03 0.01 0.01 0.01 0.02 0.03 0.03 0.04 0.05 0.08 0.11 0.11 0.13 0.12 0.11 0.10 0.09 0.08 0.08 0.07 0.07 0.06 0.05 0.05
0.00 0.02 0.03 0.04 0.04 0.04 0.02 0.02 0.03 0.05 0.07 0.07 0.07 0.06 0.04 0.04 0.06 0.04 0.02 0.02 0.02 0.01 0.02 0.02 0.04 0.04 0.05 0.04 0.05 0.08 0.12 0.12 0.10 0.10 0.10 0.10 0.10 0.09 0.08 0.09 0.08 0.07 0.06 0.05
0.01 0.01 0.02 0.01 0.02 0.02 0.01 0.02 0.04 0.06 0.07 0.08 0.06 0.04 0.03 0.03 0.04 0.03 0.03 0.02 0.02 0.03 0.04 0.04 0.04 0.04 0.04 0.05 0.09 0.08 0.09 0.09 0.08 0.07 0.07 0.09 0.09 0.09 0.08 0.08 0.07 0.06 0.05 0.04
0.01 0.02 0.02 0.01 0.01 0.02 0.03 0.03 0.04 0.07 0.08 0.06 0.05 0.04 0.02 0.01 0.03 0.04 0.02 0.02 0.02 0.03 0.04 0.03 0.04 0.03 0.03 0.04 0.08 0.09 0.07 0.07 0.07 0.06 0.06 0.06 0.08 0.07 0.05 0.05 0.06 0.06 0.06 0.07
0.02 0.02 0.03 0.02 0.03 0.04 0.05 0.03 0.03 0.05 0.05 0.03 0.03 0.02 0.02 0.01 0.02 0.02 0.02 0.02 0.01 0.02 0.02 0.02 0.02 0.03 0.03 0.02 0.03 0.06 0.06 0.06 0.07 0.07 0.06 0.06 0.07 0.06 0.06 0.05 0.05 0.06 0.08 0.07
0.01 0.03 0.03 0.03 0.05 0.07 0.05 0.02 0.02 0.02 0.04 0.04 0.02 0.02 0.02 0.02 0.02 0.01 0.01 0.01 0.01 0.01 0.01 0.02 0.02 0.03 0.04 0.02 0.03 0.04 0.04 0.05 0.06 0.08 0.09 0.08 0.08 0.08 0.08 0.07 0.06 0.08 0.09 0.08
0.01 0.02 0.04 0.05 0.08 0.07 0.05 0.03 0.03 0.04 0.05 0.03 0.03 0.02 0.03 0.02 0.02 0.02 0.01 0.01 0.01 0.01 0.02 0.02 0.02 0.02 0.04 0.04 0.03 0.03 0.03 0.03 0.04 0.06 0.08 0.08 0.07 0.06 0.06 0.06 0.06 0.06 0.08 0.09
0.01 0.02 0.04 0.06 0.09 0.09 0.09 0.05 0.03 0.07 0.08 0.04 0.02 0.03 0.03 0.02 0.04 0.04 0.01 0.01 0.02 0.02 0.02 0.02 0.02 0.01 0.02 0.03 0.02 0.02 0.02 0.02 0.02 0.03 0.04 0.05 0.05 0.05 0.04 0.04 0.04 0.04 0.05 0.04
0.03 0.04 0.05 0.07 0.09 0.10 0.08 0.05 0.04 0.10 0.09 0.07 0.04 0.05 0.04 0.05 0.06 0.04 0.02 0.02 0.02 0.02 0.03 0.03 0.03 0.03 0.03 0.03 0.04 0.05 0.04 0.04 0.02 0.02 0.03 0.05 0.05 0.05 0.05 0.05 0.05 0.04 0.03 0.04
0.04 0.05 0.06 0.08 0.10 0.08 0.05 0.06 0.08 0.12 0.08 0.07 0.05 0.04 0.04 0.05 0.04 0.03 0.03 0.03 0.02 0.02 0.02 0.03 0.04 0.04 0.04 0.04 0.05 0.05 0.05 0.05 0.04 0.03 0.03 0.05 0.06 0.05 0.06 0.07 0.05 0.05 0.05 0.05
0.04 0.04 0.06 0.07 0.07 0.07 0.06 0.06 0.07 0.09 0.07 0.07 0.06 0.05 0.06 0.06 0.03 0.02 0.02 0.02 0.02 0.02 0.03 0.04 0.04 0.04 0.03 0.03 0.03 0.04 0.05 0.05 0.05 0.05 0.06 0.06 0.08 0.09 0.10 0.09 0.08 0.07 0.06 0.06
0.04 0.03 0.06 0.06 0.04 0.04 0.03 0.04 0.04 0.04 0.04 0.04 0.06 0.09 0.08 0.06 0.03 0.02 0.02 0.01 0.02 0.02 0.03 0.04 0.05 0.04 0.03 0.03 0.03 0.03 0.04 0.05 0.05 0.06 0.07 0.08 0.08 0.09 0.10 0.11 0.10 0.10 0.09 0.06
0.04 0.04 0.06 0.05 0.04 0.03 0.03 0.03 0.04 0.04 0.02 0.02 0.03 0.07 0.06 0.05 0.03 0.02 0.02 0.02 0.02 0.02 0.02 0.03 0.04 0.04 0.03 0.03 0.03 0.03 0.03 0.03 0.03 0.05 0.05 0.05 0.05 0.06 0.07 0.09 0.09 0.10 0.10 0.09
0.04 0.05 0.07 0.07 0.05 0.04 0.03 0.03 0.03 0.03 0.03 0.02 0.03 0.03 0.04 0.04 0.03 0.03 0.02 0.02 0.02 0.02 0.02 0.02 0.03 0.03 0.03 0.03 0.03 0.03 0.02 0.02 0.02 0.03 0.03 0.03 0.04 0.04 0.03 0.04 0.04 0.04 0.06 0.07
MSLP
1006.36 1006.95 1007.32 1007.44 1007.33 1007.04 1006.64 1006.19 1005.75 1005.36 1005.04 1004.80 1004.65 1004.59 1004.61 1004.71 1004.90 1005.18 1005.53 1005.96 1006.44 1006.95 1007.49 1008.03 1008.57 1009.11 1009.65 1010.19 1010.73 1011.26 1011.78 1012.27 1012.71 1013.10 1013.42 1013.67 1013.87 1014.03 1014.15 1014.27 1014.39 1014.52 1014.65 1014.79
1006.53 1006.93 1007.13 1007.14 1006.99 1006.74 1006.44 1006.13 1005.85 1005.60 1005.37 1005.18 1004.99 1004.84 1004.73 1004.68 1004.72 1004.88 1005.15 1005.54 1006.02 1006.57 1007.15 1007.74 1008.31 1008.86 1009.38 1009.89 1010.39 1010.90 1011.42 1011.92 1012.40 1012.84 1013.22 1013.52 1013.76 1013.93 1014.07 1014.18 1014.28 1014.40 1014.54 1014.70
1006.50 1006.67 1006.68 1006.58 1006.42 1006.25 1006.10 1006.00 1005.93 1005.87 1005.78 1005.65 1005.45 1005.20 1004.94 1004.71 1004.57 1004.57 1004.72 1005.04 1005.50 1006.07 1006.69 1007.32 1007.93 1008.50 1009.02 1009.52 1010.01 1010.51 1011.02 1011.54 1012.05 1012.52 1012.94 1013.29 1013.56 1013.76 1013.90 1014.01 1014.12 1014.25 1014.41 1014.60
1006.26 1006.19 1006.03 1005.85 1005.71 1005.66 1005.72 1005.87 1006.06 1006.23 1006.30 1006.25 1006.04 1005.69 1005.26 1004.82 1004.46 1004.25 1004.24 1004.44 1004.84 1005.39 1006.03 1006.70 1007.36 1007.96 1008.52 1009.04 1009.54 1010.05 1010.57 1011.11 1011.65 1012.17 1012.63 1013.01 1013.31 1013.52 1013.67 1013.80 1013.92 1014.07 1014.26 1014.50
1005.83 1005.56 1005.27 1005.05 1004.98 1005.10 1005.39 1005.82 1006.29 1006.70 1006.95 1006.98 1006.75 1006.29 1005.68 1005.00 1004.39 1003.93 1003.70 1003.74 1004.03 1004.52 1005.15 1005.85 1006.55 1007.21 1007.82 1008.39 1008.93 1009.47 1010.04 1010.61 1011.19 1011.75 1012.25 1012.67 1013.00 1013.23 1013.40 1013.53 1013.67 1013.84 1014.07 1014.35
1005.26 1004.85 1004.49 1004.30 1004.34 1004.64 1005.19 1005.89 1006.63 1007.27 1007.68 1007.77 1007.52 1006.94 1006.13 1005.21 1004.32 1003.59 1003.12 1002.95 1003.08 1003.48 1004.07 1004.77 1005.50 1006.21 1006.88 1007.52 1008.12 1008.73 1009.35 1009.99 1010.62 1011.23 1011.78 1012.24 1012.60 1012.86 1013.04 1013.19 1013.34 1013.53 1013.78 1014.09
1004.61 1004.15 1003.80 1003.67 1003.85 1004.35 1005.12 1006.07 1007.03 1007.85 1008.38 1008.52 1008.23 1007.54 1006.55 1005.39 1004.24 1003.24 1002.52 1002.13 1002.09 1002.35 1002.87 1003.53 1004.27 1005.01 1005.74 1006.43 1007.11 1007.78 1008.47 1009.18 1009.88 1010.55 1011.15 1011.66 1012.07 1012.36 1012.57 1012.73 1012.89 1013.09 1013.35 1013.68
1003.99 1003.54 1003.26 1003.24 1003.56 1004.22 1005.17 1006.28 1007.40 1008.33 1008.93 1009.09 1008.76 1007.97 1006.83 1005.49 1004.13 1002.90 1001.96 1001.36 1001.14 1001.26 1001.66 1002.26 1002.96 1003.70 1004.45 1005.18 1005.91 1006.64 1007.39 1008.16 1008.92 1009.66 1010.33 1010.90 1011.36 1011.70 1011.94 1012.12 1012.29 1012.49 1012.75 1013.08
1003.46 1003.12 1002.94 1003.03 1003.46 1004.22 1005.26 1006.45 1007.62 1008.59 1009.20 1009.34 1008.98 1008.14 1006.92 1005.47 1003.97 1002.61 1001.50 1000.75 1000.37 1000.35 1000.62 1001.12 1001.74 1002.43 1003.14 1003.86 1004.60 1005.35 1006.13 1006.94 1007.76 1008.56 1009.30 1009.94 1010.46 1010.86 1011.15 1011.36 1011.55 1011.75 1012.01 1012.34
1003.13 1002.92 1002.86 1003.04 1003.53 1004.32 1005.34 1006.50 1007.61 1008.53 1009.09 1009.21 1008.82 1007.98 1006.76 1005.30 1003.80 1002.39 1001.23 1000.39 999.90 999.76 999.91 1000.27 1000.77 1001.35 1001.97 1002.62 1003.30 1004.01 1004.78 1005.59 1006.44 1007.28 1008.08 1008.79 1009.39 1009.86 1010.22 1010.49 1010.71 1010.93 1011.19 1011.51
1003.05 1002.98 1003.02 1003.25 1003.73 1004.45 1005.36 1006.37 1007.33 1008.12 1008.59 1008.65 1008.28 1007.49 1006.36 1005.02 1003.62 1002.31 1001.20 1000.37 999.84 999.62 999.65 999.87 1000.21 1000.63 1001.09 1001.59 1002.14 1002.75 1003.44 1004.21 1005.03 1005.88 1006.72 1007.50 1008.19 1008.75 1009.20 1009.55 1009.83 1010.10 1010.38 1010.70
1003.21 1003.26 1003.37 1003.61 1004.00 1004.58 1005.29 1006.07 1006.82 1007.41 1007.75 1007.77 1007.43 1006.76 1005.81 1004.68 1003.50 1002.39 1001.43 1000.70 1000.21 999.95 999.88 999.96 1000.12 1000.34 1000.59 1000.89 1001.25 1001.69 1002.23 1002.89 1003.65 1004.48 1005.33 1006.16 1006.93 1007.59 1008.15 1008.60 1008.97 1009.30 1009.62 1009.97
1003.57 1003.71 1003.85 1004.03 1004.31 1004.68 1005.15 1005.65 1006.14 1006.52 1006.73 1006.70 1006.43 1005.91 1005.19 1004.34 1003.46 1002.63 1001.91 1001.35 1000.95 1000.70 1000.56 1000.50 1000.48 1000.48 1000.50 1000.55 1000.66 1000.88 1001.23 1001.73 1002.37 1003.13 1003.97 1004.83 1005.66 1006.42 1007.09 1007.65 1008.13 1008.55 1008.94 1009.33
1004.03 1004.21 1004.35 1004.46 1004.59 1004.76 1004.96 1005.20 1005.42 1005.60 1005.68 1005.63 1005.43 1005.08 1004.62 1004.09 1003.54 1003.03 1002.58 1002.22 1001.94 1001.73 1001.56 1001.39 1001.19 1000.97 1000.74 1000.53 1000.38 1000.35 1000.47 1000.78 1001.27 1001.92 1002.69 1003.54 1004.41 1005.25 1006.02 1006.70 1007.29 1007.81 1008.28 1008.73
1004.48 1004.68 1004.79 1004.82 1004.82 1004.80 1004.78 1004.78 1004.79 1004.79 1004.77 1004.71 1004.59 1004.42 1004.21 1003.98 1003.74 1003.53 1003.34 1003.19 1003.04 1002.89 1002.69 1002.43 1002.08 1001.67 1001.22 1000.76 1000.36 1000.07 999.96 1000.05 1000.35 1000.86 1001.54 1002.34 1003.21 1004.08 1004.93 1005.70 1006.39 1007.01 1007.56 1008.08
1004.82 1005.00 1005.08 1005.06 1004.96 1004.81 1004.64 1004.48 1004.34 1004.23 1004.15 1004.09 1004.05 1004.03 1004.02 1004.03 1004.05 1004.08 1004.11 1004.13 1004.09 1003.99 1003.78 1003.45 1002.99 1002.43 1001.79 1001.13 1000.51 999.99 999.66 999.53 999.64 999.98 1000.53 1001.24 1002.05 1002.92 1003.79 1004.62 1005.38 1006.07 1006.70 1007.27
1004.98 1005.13 1005.19 1005.14 1005.00 1004.80 1004.57 1004.33 1004.13 1003.97 1003.88 1003.84 1003.87 1003.96 1004.09 1004.26 1004.45 1004.64 1004.81 1004.93 1004.97 1004.89 1004.67 1004.30 1003.77 1003.11 1002.35 1001.54 1000.76 1000.07 999.55 999.23 999.14 999.31 999.69 1000.27 1000.99 1001.80 1002.64 1003.46 1004.25 1004.97 1005.64 1006.25
1004.95 1005.07 1005.12 1005.08 1004.96 1004.78 1004.57 1004.36 1004.18 1004.04 1003.97 1003.98 1004.06 1004.20 1004.41 1004.65 1004.91 1005.17 1005.39 1005.55 1005.60 1005.54 1005.31 1004.92 1004.36 1003.65 1002.84 1001.96 1001.09 1000.29 999.63 999.16 998.91 998.89 999.11 999.53 1000.10 1000.79 1001.54 1002.30 1003.05 1003.76 1004.42 1005.05
1004.80 1004.88 1004.92 1004.92 1004.87 1004.78 1004.66 1004.54 1004.44 1004.38 1004.37 1004.43 1004.54 1004.71 1004.92 1005.16 1005.41 1005.65 1005.85 1005.99 1006.03 1005.94 1005.72 1005.33 1004.78 1004.09 1003.28 1002.41 1001.52 1000.68 999.94 999.36 998.98 998.81 998.86 999.10 999.50 1000.03 1000.63 1001.28 1001.93 1002.57 1003.19 1003.80
1004.60 1004.64 1004.70 1004.75 1004.78 1004.81 1004.82 1004.83 1004.86 1004.90 1004.97 1005.08 1005.22 1005.38 1005.56 1005.75 1005.94 1006.11 1006.24 1006.32 1006.32 1006.21 1005.98 1005.62 1005.12 1004.49 1003.76 1002.94 1002.10 1001.28 1000.52 999.89 999.42 999.12 999.01 999.08 999.30 999.65 1000.08 1000.57 1001.09 1001.62 1002.15 1002.69
1004.48 1004.47 1004.53 1004.62 1004.74 1004.88 1005.03 1005.18 1005.34 1005.50 1005.66 1005.82 1005.97 1006.12 1006.26 1006.38 1006.48 1006.57 1006.61 1006.62 1006.57 1006.45 1006.24 1005.93 1005.50 1004.97 1004.34 1003.64 1002.89 1002.13 1001.42 1000.78 1000.26 999.87 999.64 999.55 999.60 999.77 1000.02 1000.34 1000.70 1001.09 1001.51 1001.96
1004.49 1004.44 1004.49 1004.60 1004.79 1005.01 1005.27 1005.54 1005.82 1006.08 1006.32 1006.52 1006.70 1006.83 1006.93 1006.99 1007.02 1007.03 1007.01 1006.96 1006.89 1006.77 1006.59 1006.35 1006.02 1005.61 1005.11 1004.53 1003.90 1003.25 1002.60 1001.99 1001.46 1001.03 1000.71 1000.50 1000.41 1000.42 1000.51 1000.67 1000.88 1001.13 1001.41 1001.74
1004.69 1004.60 1004.61 1004.73 1004.94 1005.21 1005.54 1005.88 1006.24 1006.57 1006.87 1007.12 1007.31 1007.44 1007.52 1007.54 1007.53 1007.50 1007.44 1007.38 1007.30 1007.21 1007.09 1006.92 1006.70 1006.41 1006.04 1005.60 1005.10 1004.56 1004.00 1003.45 1002.94 1002.49 1002.12 1001.84 1001.65 1001.55 1001.52 1001.54 1001.62 1001.74 1001.90 1002.12
1005.05 1004.93 1004.92 1005.01 1005.21 1005.48 1005.82 1006.19 1006.58 1006.94 1007.27 1007.55 1007.76 1007.90 1007.98 1008.01 1007.99 1007.96 1007.91 1007.86 1007.82 1007.77 1007.72 1007.63 1007.51 1007.33 1007.08 1006.77 1006.38 1005.94 1005.46 1004.98 1004.50 1004.07 1003.70 1003.39 1003.15 1002.98 1002.87 1002.82 1002.81 1002.83 1002.90 1003.00
1005.56 1005.43 1005.38 1005.44 1005.59 1005.83 1006.13 1006.48 1006.85 1007.21 1007.54 1007.83 1008.05 1008.21 1008.31 1008.36 1008.37 1008.37 1008.36 1008.36 1008.37 1008.38 1008.39 1008.39 1008.35 1008.26 1008.10 1007.88 1007.58 1007.22 1006.81 1006.39 1005.96 1005.57 1005.21 1004.91 1004.66 1004.48 1004.35 1004.27 1004.21 1004.19 1004.19 1004.22
1006.18 1006.04 1005.98 1005.99 1006.09 1006.26 1006.50 1006.79 1007.11 1007.43 1007.73 1008.00 1008.22 1008.39 1008.51 1008.60 1008.65 1008.70 1008.74 1008.80 1008.87 1008.94 1009.01 1009.07 1009.09 1009.06 1008.96 1008.79 1008.55 1008.24 1007.88 1007.50 1007.12 1006.76 1006.43 1006.16 1005.95 1005.79 1005.68 1005.61 1005.56 1005.53 1005.52 1005.51
Thickness
5776 5766 5764 5776 5786 5788 5786 5783 5784 5797 5816 5807 5801 5803 5810 5815 5813 5810 5806 5804 5801 5798 5802 5804 5802 5800 5795 5788 5783 5779 5774 5771 5767 5763 5758 5755 5752 5752 5751 5750 5748 5745 5743 5741
5763 5762 5780 5791 5793 5790 5785 5779 5782 5794 5808 5802 5795 5799 5810 5813 5810 5809 5805 5800 5798 5797 5795 5796 5797 5795 5789 5784 5780 5776 5772 5769 5765 5762 5758 5754 5752 5750 5749 5747 5744 5741 5739 5737
5760 5777 5792 5787 5784 5781 5781 5779 5780 5780 5795 5800 5790 5785 5797 5805 5808 5808 5805 5802 5799 5794 5789 5791 5790 5788 5786 5781 5778 5775 5770 5767 5764 5760 5756 5752 5749 5746 5744 5741 5739 5738 5736 5734
5769 5785 5787 5781 5780 5780 5771 5789 5787 5782 5774 5773 5780 5762 5781 5790 5793 5797 5798 5797 5794 5793 5789 5786 5783 5783 5783 5780 5777 5773 5768 5764 5761 5758 5753 5748 5743 5740 5740 5738 5737 5735 5733 5731
5765 5778 5778 5774 5781 5784 5780 5792 5786 5781 5773 5766 5773 5763 5769 5785 5780 5786 5792 5793 5792 5791 5786 5781 5780 5779 5780 5779 5775 5770 5765 5760 5757 5754 5750 5746 5743 5740 5738 5736 5733 5731 5730 5728
5769 5784 5785 5783 5790 5790 5789 5783 5779 5776 5768 5746 5760 5755 5754 5776 5777 5782 5787 5789 5789 5787 5784 5780 5779 5776 5775 5775 5771 5766 5760 5756 5753 5750 5746 5742 5740 5737 5733 5731 5728 5727 5726 5724
5753 5769 5785 5788 5775 5779 5777 5759 5739 5733 5736 5740 5762 5753 5756 5779 5788 5786 5784 5782 5783 5783 5781 5777 5774 5772 5769 5767 5765 5761 5756 5751 5748 5745 5742 5739 5736 5733 5730 5728 5726 5723 5722 5720
5739 5747 5775 5782 5773 5765 5767 5760 5733 5720 5727 5743 5759 5749 5764 5786 5791 5791 5786 5781 5780 5778 5778 5775 5772 5767 5763 5761 5759 5755 5751 5747 5744 5741 5738 5735 5733 5730 5728 5726 5725 5722 5720 5719
5740 5744 5778 5786 5785 5775 5761 5761 5765 5745 5740 5734 5746 5757 5767 5780 5776 5778 5776 5773 5771 5769 5771 5770 5766 5763 5760 5757 5753 5750 5745 5741 5739 5737 5734 5731 5729 5726 5724 5723 5722 5720 5718 5717
5746 5736 5762 5777 5780 5776 5772 5765 5752 5737 5721 5719 5737 5743 5743 5755 5763 5766 5767 5765 5764 5766 5764 5763 5760 5757 5755 5752 5748 5744 5739 5736 5734 5732 5729 5727 5724 5722 5720 5719 5717 5716 5714 5713
5745 5730 5740 5752 5751 5751 5757 5752 5748 5744 5740 5720 5717 5728 5752 5753 5760 5760 5761 5762 5762 5761 5758 5755 5753 5752 5749 5746 5742 5737 5733 5729 5727 5726 5723 5721 5719 5717 5716 5714 5713 5712 5710 5709
5736 5727 5721 5734 5755 5763 5755 5750 5744 5724 5721 5726 5718 5724 5757 5755 5757 5757 5756 5758 5758 5756 5754 5751 5747 5743 5740 5737 5733 5729 5726 5724 5722 5720 5717 5715 5714 5713 5711 5710 5709 5708 5706 5705
5728 5717 5704 5712 5727 5742 5740 5743 5743 5736 5725 5718 5711 5720 5750 5749 5747 5749 5747 5748 5749 5747 5745 5742 5738 5734 5732 5729 5726 5723 5720 5719 5717 5714 5711 5709 5708 5707 5706 5705 5704 5703 5701 5700
5725 5712 5702 5697 5710 5723 5722 5728 5734 5730 5718 5712 5714 5719 5730 5732 5730 5734 5738 5740 5741 5739 5736 5733 5728 5725 5723 5721 5719 5716 5714 5713 5711 5709 5706 5703 5702 5701 5701 5701 5699 5698 5696 5695
5715 5702 5706 5712 5719 5720 5719 5721 5724 5722 5721 5716 5718 5720 5723 5726 5727 5728 5729 5731 5729 5729 5726 5723 5719 5716 5715 5713 5712 5711 5709 5707 5706 5703 5700 5698 5698 5697 5696 5695 5694 5694 5692 5692
5704 5695 5698 5700 5711 5712 5711 5717 5720 5722 5723 5721 5718 5716 5727 5729 5727 5722 5722 5721 5719 5719 5717 5715 5712 5710 5708 5706 5705 5704 5703 5702 5702 5699 5696 5695 5693 5691 5689 5689 5689 5688 5687 5687
5693 5687 5682 5684 5699 5697 5692 5709 5714 5712 5716 5717 5707 5712 5723 5719 5716 5714 5715 5714 5712 5711 5711 5708 5707 5704 5702 5701 5701 5699 5698 5697 5695 5693 5691 5690 5689 5686 5685 5685 5684 5683 5682 5682
5682 5679 5678 5678 5680 5667 5692 5715 5715 5709 5708 5714 5713 5714 5716 5712 5713 5714 5713 5709 5705 5704 5703 5703 5701 5699 5698 5697 5696 5694 5693 5691 5689 5688 5687 5686 5684 5682 5681 5680 5679 5678 5678 5677
5686 5675 5670 5670 5666 5674 5690 5701 5704 5698 5691 5703 5704 5707 5710 5710 5708 5704 5706 5705 5700 5699 5697 5697 5696 5695 5693 5692 5690 5688 5686 5685 5684 5683 5682 5680 5679 5678 5676 5675 5674 5674 5673 5672
5685 5677 5666 5663 5656 5655 5673 5693 5703 5693 5676 5690 5694 5693 5697 5699 5688 5688 5698 5698 5696 5694 5693 5692 5690 5689 5686 5685 5684 5682 5680 5679 5678 5678 5677 5676 5675 5673 5671 5670 5669 5669 5668 5668
5666 5663 5657 5654 5650 5655 5670 5683 5691 5666 5660 5676 5681 5682 5683 5684 5681 5684 5690 5690 5688 5687 5686 5685 5683 5680 5679 5679 5677 5674 5673 5672 5672 5673 5672 5670 5669 5668 5667 5666 5665 5664 5664 5663
5655 5652 5649 5649 5641 5643 5663 5668 5658 5653 5663 5668 5669 5672 5674 5676 5678 5680 5681 5680 5679 5678 5677 5676 5674 5672 5673 5673 5670 5668 5666 5667 5667 5666 5665 5663 5662 5662 5661 5659 5658 5659 5658 5657
5651 5648 5646 5642 5639 5646 5652 5653 5653 5655 5655 5659 5661 5664 5666 5667 5668 5671 5671 5671 5670 5669 5668 5668 5666 5665 5665 5665 5664 5661 5661 5661 5661 5659 5657 5656 5656 5655 5654 5653 5651 5651 5652 5651
5642 5648 5642 5637 5638 5643 5643 5646 5648 5650 5650 5654 5656 5657 5659 5658 5660 5662 5663 5662 5661 5661 5660 5660 5658 5657 5657 5658 5658 5656 5656 5655 5654 5652 5651 5650 5649 5648 5647 5647 5646 5645 5644 5644
5627 5631 5631 5627 5631 5633 5635 5637 5639 5642 5645 5649 5651 5651 5653 5653 5653 5654 5653 5653 5653 5653 5652 5652 5650 5649 5649 5650 5650 5650 5650 5650 5647 5646 5645 5644 5644 5643 5641 5639 5638 5639 5637 5636
5619 5619 5618 5616 5620 5620 5622 5629 5633 5633 5635 5639 5643 5644 5646 5647 5645 5646 5645 5645 5645 5645 5645 5644 5643 5643 5643 5643 5643 5644 5644 5644 5641 5640 5639 5640 5639 5638 5637 5634 5632 5631 5631 5630